Location: ????????
(56.1167°N, 38.6333°E)
Time: 22:01:58
(UTC+00:00)

SL-19 R/B - Pass Details

Date: 18 November 2025
Orbit: 795 x 1007 km, 99.6° (Epoch: 14 December)

Event Time Altitude Azimuth Distance (km) Brightness Sun altitude
Rises 14:48:01 0° 138° (SE) 3,298 7.0 -12.9°
Reaches altitude 10° 14:50:24 10° 133° (SE) 2,367 6.2 -13.2°
Maximum altitude 14:55:20 47° 61° (ENE) 1,063 4.3 -13.9°
Drops below altitude 10° 15:00:22 10° 349° (N) 2,414 6.6 -14.6°
Sets 15:02:49 0° 344° (NNW) 3,370 7.4 -14.9°
